TimeEST,TemperatureF,Dew PointF,Humidity,Sea Level PressureIn,VisibilityMPH,Wind Direction,Wind SpeedMPH,Gust SpeedMPH,PrecipitationIn,Events,Conditions,WindDirDegrees,DateUTC
12:17 AM,32.0,30.2,93,29.84,1.0,NNE,10.4,19.6,N/A,Snow,Light Snow,20,2012-12-27 05:17:00
12:37 AM,32.0,30.2,93,29.85,1.2,NNE,9.2,17.3,N/A,Snow,Light Snow,20,2012-12-27 05:37:00
12:57 AM,30.2,28.4,93,29.85,1.8,NNE,11.5,17.3,N/A,Snow,Light Snow,20,2012-12-27 05:57:00
1:17 AM,30.2,28.4,93,29.85,1.8,North,11.5,19.6,N/A,Snow,Light Snow,10,2012-12-27 06:17:00
1:37 AM,30.2,28.4,93,29.86,1.2,NNE,10.4,18.4,N/A,Snow,Light Snow,20,2012-12-27 06:37:00
1:57 AM,30.2,28.4,93,29.86,1.5,NNE,11.5,19.6,N/A,Snow,Light Snow,20,2012-12-27 06:57:00
2:17 AM,30.2,28.4,93,29.87,1.5,NNE,11.5,18.4,N/A,Snow,Light Snow,30,2012-12-27 07:17:00
2:37 AM,30.2,28.4,93,29.88,1.8,NNE,12.7,16.1,N/A,Snow,Light Snow,30,2012-12-27 07:37:00
2:57 AM,32.0,28.4,87,29.88,2.5,NNE,9.2,19.6,N/A,Snow,Light Snow,30,2012-12-27 07:57:00
3:17 AM,32.0,30.2,93,29.88,4.0,NNE,11.5,17.3,N/A,Snow,Light Snow,20,2012-12-27 08:17:00
3:37 AM,32.0,30.2,93,29.88,2.5,NNE,11.5,17.3,N/A,Snow,Light Snow,20,2012-12-27 08:37:00
3:57 AM,32.0,30.2,93,29.89,2.0,NNE,8.1,-,N/A,Snow,Light Snow,20,2012-12-27 08:57:00
4:17 AM,32.0,30.2,93,29.89,1.5,NNE,11.5,-,N/A,Snow,Light Snow,30,2012-12-27 09:17:00
4:37 AM,32.0,30.2,93,29.89,1.5,NNE,8.1,-,N/A,Snow,Light Snow,30,2012-12-27 09:37:00
4:57 AM,32.0,32.0,100,29.89,1.5,North,10.4,-,N/A,Snow,Light Snow,350,2012-12-27 09:57:00
5:17 AM,33.8,32.0,93,29.90,1.5,North,6.9,17.3,N/A,Snow,Light Snow,360,2012-12-27 10:17:00
5:37 AM,33.8,32.0,93,29.91,1.5,North,8.1,-,N/A,Snow,Light Snow,360,2012-12-27 10:37:00
5:57 AM,33.8,32.0,93,29.91,2.0,North,10.4,-,N/A,Snow,Light Snow,360,2012-12-27 10:57:00
6:17 AM,33.8,32.0,93,29.92,2.0,North,9.2,-,N/A,Snow,Light Snow,360,2012-12-27 11:17:00
6:37 AM,33.8,32.0,93,29.92,1.5,North,8.1,-,N/A,Snow,Light Snow,360,2012-12-27 11:37:00
6:57 AM,33.8,32.0,93,29.93,1.5,NNW,8.1,-,N/A,Snow,Light Snow,340,2012-12-27 11:57:00
7:17 AM,32.0,32.0,100,29.94,1.5,NNW,5.8,-,N/A,Snow,Light Snow,340,2012-12-27 12:17:00
7:37 AM,32.0,32.0,100,29.95,1.8,NNW,5.8,-,N/A,Snow,Light Snow,330,2012-12-27 12:37:00
7:57 AM,32.0,32.0,100,29.96,2.0,NNW,6.9,-,N/A,Snow,Light Snow,340,2012-12-27 12:57:00
8:17 AM,32.0,30.2,93,29.97,1.5,NNW,8.1,-,N/A,Snow,Light Snow,340,2012-12-27 13:17:00
8:37 AM,32.0,30.2,93,29.98,4.0,NNW,8.1,18.4,N/A,Snow,Light Snow,340,2012-12-27 13:37:00
8:57 AM,32.0,28.4,87,29.99,3.0,NW,10.4,-,N/A,Snow,Light Snow,320,2012-12-27 13:57:00
9:17 AM,32.0,28.4,87,30.00,7.0,NW,9.2,-,N/A,,Overcast,320,2012-12-27 14:17:00
9:37 AM,32.0,28.4,87,30.01,10.0,NW,10.4,-,N/A,,Overcast,320,2012-12-27 14:37:00
9:57 AM,32.0,28.4,87,30.02,10.0,NNW,10.4,-,N/A,,Overcast,330,2012-12-27 14:57:00
10:17 AM,32.0,28.4,87,30.03,10.0,NNW,11.5,18.4,N/A,,Overcast,330,2012-12-27 15:17:00
10:37 AM,32.0,28.4,87,30.03,10.0,NW,10.4,17.3,N/A,,Overcast,310,2012-12-27 15:37:00
10:57 AM,32.0,26.6,80,30.03,10.0,NW,8.1,17.3,N/A,,Overcast,320,2012-12-27 15:57:00
11:17 AM,32.0,26.6,80,30.04,10.0,NNW,9.2,16.1,N/A,,Overcast,330,2012-12-27 16:17:00
11:37 AM,32.0,26.6,80,30.03,10.0,NNW,12.7,18.4,N/A,,Overcast,340,2012-12-27 16:37:00
11:57 AM,32.0,26.6,80,30.03,10.0,NNW,12.7,17.3,N/A,,Overcast,330,2012-12-27 16:57:00
12:17 PM,32.0,26.6,80,30.03,10.0,NNW,10.4,-,N/A,,Overcast,340,2012-12-27 17:17:00
12:37 PM,30.2,26.6,86,30.03,7.0,NW,9.2,18.4,N/A,,Overcast,310,2012-12-27 17:37:00
12:57 PM,30.2,26.6,86,30.03,10.0,NW,9.2,16.1,N/A,,Overcast,310,2012-12-27 17:57:00
1:17 PM,30.2,26.6,86,30.03,10.0,NNW,9.2,-,N/A,,Overcast,330,2012-12-27 18:17:00
1:37 PM,30.2,24.8,80,30.03,10.0,NW,9.2,16.1,N/A,,Overcast,310,2012-12-27 18:37:00
1:57 PM,30.2,24.8,80,30.03,10.0,NW,11.5,-,N/A,,Overcast,320,2012-12-27 18:57:00
2:17 PM,30.2,24.8,80,30.04,10.0,NW,9.2,-,N/A,,Overcast,320,2012-12-27 19:17:00
2:37 PM,30.2,24.8,80,30.04,10.0,NW,9.2,-,N/A,,Overcast,310,2012-12-27 19:37:00
2:57 PM,30.2,23.0,75,30.05,10.0,NW,11.5,17.3,N/A,,Overcast,310,2012-12-27 19:57:00
3:17 PM,30.2,24.8,80,30.05,10.0,NW,10.4,-,N/A,,Overcast,310,2012-12-27 20:17:00
3:37 PM,30.2,23.0,75,30.06,10.0,NW,6.9,-,N/A,,Overcast,320,2012-12-27 20:37:00
3:57 PM,28.4,23.0,80,30.07,10.0,NW,8.1,-,N/A,,Overcast,310,2012-12-27 20:57:00
4:17 PM,28.4,23.0,80,30.08,10.0,NW,8.1,-,N/A,,Overcast,320,2012-12-27 21:17:00
4:37 PM,28.4,23.0,80,30.09,10.0,NW,8.1,-,N/A,,Overcast,310,2012-12-27 21:37:00
4:57 PM,28.4,21.2,74,30.09,10.0,NW,6.9,-,N/A,,Overcast,320,2012-12-27 21:57:00
5:17 PM,28.4,21.2,74,30.09,10.0,WNW,10.4,-,N/A,,Overcast,300,2012-12-27 22:17:00
5:37 PM,26.6,21.2,80,30.10,10.0,NW,6.9,-,N/A,,Overcast,310,2012-12-27 22:37:00
5:57 PM,26.6,21.2,80,30.10,10.0,NW,5.8,-,N/A,,Overcast,310,2012-12-27 22:57:00
6:17 PM,26.6,21.2,80,30.10,10.0,NW,5.8,-,N/A,,Overcast,320,2012-12-27 23:17:00
6:37 PM,26.6,19.4,74,30.10,10.0,NW,5.8,-,N/A,,Overcast,320,2012-12-27 23:37:00
6:57 PM,24.8,19.4,80,30.11,10.0,NW,4.6,-,N/A,,Scattered Clouds,310,2012-12-27 23:57:00
7:17 PM,24.8,19.4,80,30.12,10.0,WNW,3.5,-,N/A,,Clear,290,2012-12-28 00:17:00
7:37 PM,23.0,19.4,86,30.12,10.0,West,4.6,-,N/A,,Clear,280,2012-12-28 00:37:00
7:57 PM,23.0,17.6,80,30.13,10.0,West,3.5,-,N/A,,Mostly Cloudy,280,2012-12-28 00:57:00
8:17 PM,23.0,17.6,80,30.12,10.0,NW,4.6,-,N/A,,Mostly Cloudy,310,2012-12-28 01:17:00
8:37 PM,21.2,17.6,86,30.12,10.0,West,4.6,-,N/A,,Scattered Clouds,280,2012-12-28 01:37:00
8:57 PM,21.2,17.6,86,30.13,10.0,WNW,4.6,-,N/A,,Clear,300,2012-12-28 01:57:00
9:17 PM,21.2,17.6,86,30.13,10.0,West,4.6,-,N/A,,Clear,280,2012-12-28 02:17:00
9:37 PM,19.4,15.8,86,30.14,10.0,WNW,4.6,-,N/A,,Clear,290,2012-12-28 02:37:00
9:57 PM,19.4,15.8,86,30.14,10.0,WNW,4.6,-,N/A,,Clear,290,2012-12-28 02:57:00
10:17 PM,19.4,15.8,86,30.14,10.0,West,3.5,-,N/A,,Clear,280,2012-12-28 03:17:00
10:37 PM,17.6,15.8,93,30.13,10.0,West,3.5,-,N/A,,Clear,280,2012-12-28 03:37:00
10:57 PM,19.4,17.6,93,30.13,10.0,West,5.8,-,N/A,,Clear,270,2012-12-28 03:57:00
11:17 PM,17.6,14.0,86,30.13,10.0,West,3.5,-,N/A,,Clear,280,2012-12-28 04:17:00
11:37 PM,15.8,12.2,86,30.13,10.0,WNW,3.5,-,N/A,,Clear,290,2012-12-28 04:37:00
11:57 PM,12.2,10.4,92,30.13,7.0,Calm,Calm,-,N/A,,Clear,0,2012-12-28 04:57:00